Time,TemperatureF,DewpointF,PressureIn,WindDirection,WindDirectionDegrees,WindSpeedMPH,WindSpeedGustMPH,Humidity,HourlyPrecipIn,Conditions,Clouds,dailyrainin,SolarRadiationWatts/m^2,SoftwareType,DateUTC
2013-08-06 00:00:00,55.0,45.0,-100.00,NNW,335,5.0,6.0,66,-99.99,,,0.00,0.000000,,2013-08-06 07:00:00,
2013-08-06 00:43:00,55.0,45.0,-100.00,NNW,335,5.0,6.0,66,-99.99,,,0.00,0.000000,,2013-08-06 07:43:00,
2013-08-06 00:53:00,55.0,45.0,-100.00,NNW,335,5.0,6.0,66,-99.99,,,0.00,0.000000,,2013-08-06 07:53:00,
2013-08-06 01:00:00,58.0,44.0,-100.00,North,350,4.0,7.0,58,-99.99,,,0.00,0.000000,,2013-08-06 08:00:00,
2013-08-06 01:43:00,58.0,44.0,-100.00,North,350,4.0,7.0,58,-99.99,,,0.00,0.000000,,2013-08-06 08:43:00,
2013-08-06 01:52:00,58.0,44.0,-100.00,North,350,4.0,7.0,58,-99.99,,,0.00,0.000000,,2013-08-06 08:52:00,
2013-08-06 02:00:00,60.0,44.0,-100.00,North,352,7.0,11.0,56,-99.99,,,0.00,0.000000,,2013-08-06 09:00:00,
2013-08-06 02:43:00,60.0,44.0,-100.00,North,352,7.0,11.0,56,-99.99,,,0.00,0.000000,,2013-08-06 09:43:00,
2013-08-06 02:52:00,60.0,44.0,-100.00,North,352,7.0,11.0,56,-99.99,,,0.00,0.000000,,2013-08-06 09:52:00,
2013-08-06 03:00:00,55.0,48.0,-100.00,NNE,18,3.0,7.0,76,-99.99,,,0.00,0.000000,,2013-08-06 10:00:00,
2013-08-06 03:43:00,55.0,48.0,-100.00,NNE,18,3.0,7.0,76,-99.99,,,0.00,0.000000,,2013-08-06 10:43:00,
2013-08-06 03:53:00,55.0,48.0,-100.00,NNE,18,3.0,7.0,76,-99.99,,,0.00,0.000000,,2013-08-06 10:53:00,
2013-08-06 04:00:00,52.0,45.0,-100.00,NNW,329,1.0,4.0,75,-99.99,,,0.00,0.000000,,2013-08-06 11:00:00,
2013-08-06 04:43:00,52.0,45.0,-100.00,NNW,329,1.0,4.0,75,-99.99,,,0.00,0.000000,,2013-08-06 11:43:00,
2013-08-06 04:53:00,52.0,45.0,-100.00,NNW,329,1.0,4.0,75,-99.99,,,0.00,0.000000,,2013-08-06 11:53:00,
2013-08-06 05:00:00,49.0,44.0,-100.00,NNW,329,2.0,4.0,82,-99.99,,,0.00,0.000000,,2013-08-06 12:00:00,
2013-08-06 05:43:00,49.0,44.0,-100.00,NNW,329,2.0,4.0,82,-99.99,,,0.00,0.000000,,2013-08-06 12:43:00,
2013-08-06 05:52:00,49.0,44.0,-100.00,NNW,329,2.0,4.0,82,-99.99,,,0.00,0.000000,,2013-08-06 12:52:00,
2013-08-06 06:00:00,52.0,46.0,-100.00,NNE,25,3.0,6.0,80,-99.99,,,0.00,8.830000,,2013-08-06 13:00:00,
2013-08-06 06:53:00,52.0,46.0,-100.00,NNE,25,3.0,6.0,80,-99.99,,,0.00,8.830000,,2013-08-06 13:53:00,
2013-08-06 07:00:00,54.0,49.0,-100.00,East,86,1.0,2.0,83,-99.99,,,0.00,105.989998,,2013-08-06 14:00:00,
2013-08-06 07:42:00,54.0,49.0,-100.00,East,86,1.0,2.0,83,-99.99,,,0.00,105.989998,,2013-08-06 14:42:00,
2013-08-06 07:53:00,54.0,49.0,-100.00,East,86,1.0,2.0,83,-99.99,,,0.00,105.989998,,2013-08-06 14:53:00,
2013-08-06 08:00:00,62.0,49.0,-100.00,SE,144,3.0,5.0,63,-99.99,,,0.00,332.390015,,2013-08-06 15:00:00,
2013-08-06 08:44:00,62.0,49.0,-100.00,SE,144,3.0,5.0,63,-99.99,,,0.00,332.390015,,2013-08-06 15:44:00,
2013-08-06 08:52:00,62.0,49.0,-100.00,SE,144,3.0,5.0,63,-99.99,,,0.00,332.390015,,2013-08-06 15:52:00,
2013-08-06 09:00:00,66.0,49.0,-100.00,ESE,123,3.0,5.0,53,-99.99,,,0.00,517.880005,,2013-08-06 16:00:00,
2013-08-06 09:42:00,66.0,49.0,-100.00,ESE,123,3.0,5.0,53,-99.99,,,0.00,517.880005,,2013-08-06 16:42:00,
2013-08-06 09:52:00,66.0,49.0,-100.00,ESE,123,3.0,5.0,53,-99.99,,,0.00,517.880005,,2013-08-06 16:52:00,
2013-08-06 10:00:00,72.0,48.0,-100.00,East,89,2.0,5.0,43,-99.99,,,0.00,682.440002,,2013-08-06 17:00:00,
2013-08-06 10:43:00,72.0,48.0,-100.00,East,89,2.0,5.0,43,-99.99,,,0.00,682.440002,,2013-08-06 17:43:00,
2013-08-06 10:52:00,72.0,48.0,-100.00,East,89,2.0,5.0,43,-99.99,,,0.00,682.440002,,2013-08-06 17:52:00,
2013-08-06 11:00:00,78.0,49.0,-100.00,ESE,107,2.0,6.0,36,-99.99,,,0.00,776.580017,,2013-08-06 18:00:00,
2013-08-06 11:43:00,78.0,49.0,-100.00,ESE,107,2.0,6.0,36,-99.99,,,0.00,776.580017,,2013-08-06 18:43:00,
2013-08-06 11:52:00,78.0,49.0,-100.00,ESE,107,2.0,6.0,36,-99.99,,,0.00,776.580017,,2013-08-06 18:52:00,
2013-08-06 12:00:00,81.0,49.0,-100.00,West,275,3.0,5.0,31,-99.99,,,0.00,899.780029,,2013-08-06 19:00:00,
2013-08-06 12:42:00,81.0,49.0,-100.00,West,275,3.0,5.0,31,-99.99,,,0.00,899.780029,,2013-08-06 19:42:00,
2013-08-06 12:52:00,81.0,49.0,-100.00,West,275,3.0,5.0,31,-99.99,,,0.00,899.780029,,2013-08-06 19:52:00,
2013-08-06 13:00:00,86.0,43.0,-100.00,West,281,3.0,5.0,22,-99.99,,,0.00,936.729980,,2013-08-06 20:00:00,
2013-08-06 13:44:00,86.0,43.0,-100.00,West,281,3.0,5.0,22,-99.99,,,0.00,936.729980,,2013-08-06 20:44:00,
2013-08-06 13:52:00,86.0,43.0,-100.00,West,281,3.0,5.0,22,-99.99,,,0.00,936.729980,,2013-08-06 20:52:00,
2013-08-06 14:00:00,90.0,38.0,-100.00,North,8,3.0,13.0,16,-99.99,,,0.00,910.239990,,2013-08-06 21:00:00,
2013-08-06 14:43:00,90.0,38.0,-100.00,North,8,3.0,13.0,16,-99.99,,,0.00,910.239990,,2013-08-06 21:43:00,
2013-08-06 14:52:00,90.0,38.0,-100.00,North,8,3.0,13.0,16,-99.99,,,0.00,910.239990,,2013-08-06 21:52:00,
2013-08-06 15:00:00,91.0,38.0,-100.00,NNE,24,6.0,14.0,15,-99.99,,,0.00,818.890015,,2013-08-06 22:00:00,
2013-08-06 15:43:00,91.0,38.0,-100.00,NNE,24,6.0,14.0,15,-99.99,,,0.00,818.890015,,2013-08-06 22:43:00,
2013-08-06 15:53:00,91.0,38.0,-100.00,NNE,24,6.0,14.0,15,-99.99,,,0.00,818.890015,,2013-08-06 22:53:00,
2013-08-06 16:00:00,93.0,38.0,-100.00,NNW,345,4.0,13.0,14,-99.99,,,0.00,701.849976,,2013-08-06 23:00:00,
2013-08-06 16:43:00,93.0,38.0,-100.00,NNW,345,4.0,13.0,14,-99.99,,,0.00,701.849976,,2013-08-06 23:43:00,
2013-08-06 16:52:00,93.0,38.0,-100.00,NNW,345,4.0,13.0,14,-99.99,,,0.00,701.849976,,2013-08-06 23:52:00,
2013-08-06 17:00:00,92.0,39.0,-100.00,NE,38,4.0,9.0,15,-99.99,,,0.00,545.770020,,2013-08-07 00:00:00,
2013-08-06 17:43:00,92.0,39.0,-100.00,NE,38,4.0,9.0,15,-99.99,,,0.00,545.770020,,2013-08-07 00:43:00,
2013-08-06 17:52:00,92.0,39.0,-100.00,NE,38,4.0,9.0,15,-99.99,,,0.00,545.770020,,2013-08-07 00:52:00,
2013-08-06 18:00:00,91.0,37.0,-100.00,NNE,20,9.0,13.0,14,-99.99,,,0.00,360.510010,,2013-08-07 01:00:00,
2013-08-06 18:43:00,91.0,37.0,-100.00,NNE,20,9.0,13.0,14,-99.99,,,0.00,360.510010,,2013-08-07 01:43:00,
2013-08-06 18:52:00,91.0,37.0,-100.00,NNE,20,9.0,13.0,14,-99.99,,,0.00,360.510010,,2013-08-07 01:52:00,
2013-08-06 19:00:00,86.0,42.0,-100.00,NNW,344,7.0,12.0,21,-99.99,,,0.00,172.820007,,2013-08-07 02:00:00,
2013-08-06 19:43:00,86.0,42.0,-100.00,NNW,344,7.0,12.0,21,-99.99,,,0.00,172.820007,,2013-08-07 02:43:00,
2013-08-06 19:53:00,86.0,42.0,-100.00,NNW,344,7.0,12.0,21,-99.99,,,0.00,172.820007,,2013-08-07 02:53:00,
2013-08-06 21:00:00,71.0,43.0,-100.00,North,10,6.0,11.0,36,-99.99,,,0.00,0.000000,,2013-08-07 04:00:00,
2013-08-06 22:00:00,71.0,46.0,-100.00,NNE,12,5.0,7.0,41,-99.99,,,0.00,0.000000,,2013-08-07 05:00:00,
2013-08-06 22:43:00,71.0,46.0,-100.00,NNE,12,5.0,7.0,41,-99.99,,,0.00,0.000000,,2013-08-07 05:43:00,
2013-08-06 22:52:00,71.0,46.0,-100.00,NNE,12,5.0,7.0,41,-99.99,,,0.00,0.000000,,2013-08-07 05:52:00,
2013-08-06 23:00:00,65.0,46.0,-100.00,NNW,348,2.0,5.0,50,-99.99,,,0.00,0.000000,,2013-08-07 06:00:00,
2013-08-06 23:52:00,65.0,46.0,-100.00,NNW,348,2.0,5.0,50,-99.99,,,0.00,0.000000,,2013-08-07 06:52:00,